NSZ49H ESSA-EFTP

Flight info

Callsign NSZ49H
Flight time 0h 39m
Altitude 29000
Route TOVRI N851 RIKUM DCT UXETI DCT NEBAB
Aircraft B738/M-SADE3FGHIJ7LP2RWXY/SB1D1G1

Departure

Time 2026-04-22 20:37
Airport Stockholm-Arlanda Airport (ESSA)

Arrival

Time 2026-04-22 21:16
Airport Tampere-Pirkkala Airport (EFTP)
Time Latitude Longitude Altitude Speed Heading
2026-04-22 20:18 59.64434 17.92682 109 ft 0 kts 51°
2026-04-22 20:31 59.64427 17.92665 109 ft 4 kts 51°
2026-04-22 20:31 59.64411 17.92624 110 ft 4 kts 51°
2026-04-22 20:31 59.64394 17.92583 110 ft 4 kts 51°
2026-04-22 20:31 59.64378 17.92543 111 ft 4 kts 51°
2026-04-22 20:32 59.64365 17.92512 109 ft 0 kts 51°
2026-04-22 20:33 59.64369 17.92492 111 ft 7 kts 246°
2026-04-22 20:34 59.64292 17.92588 112 ft 19 kts 201°
2026-04-22 20:34 59.64321 17.92376 114 ft 17 kts 297°
2026-04-22 20:34 59.64365 17.92208 112 ft 13 kts 297°
2026-04-22 20:34 59.64408 17.91936 111 ft 28 kts 263°
2026-04-22 20:35 59.64429 17.91594 107 ft 14 kts 291°
2026-04-22 20:35 59.64452 17.91583 108 ft 0 kts 12°
2026-04-22 20:36 59.64458 17.91586 108 ft 5 kts 12°
2026-04-22 20:36 59.64701 17.91674 106 ft 70 kts 10°
2026-04-22 20:36 59.65397 17.91925 105 ft 130 kts
2026-04-22 20:37 59.66364 17.92298 514 ft 144 kts
2026-04-22 20:37 59.67349 17.92665 1278 ft 143 kts
2026-04-22 20:37 59.68303 17.93016 2165 ft 134 kts
2026-04-22 20:37 59.69288 17.93370 2587 ft 159 kts
2026-04-22 20:38 59.70410 17.93767 3031 ft 171 kts
2026-04-22 20:38 59.71578 17.94673 3277 ft 200 kts 38°
2026-04-22 20:38 59.72295 17.97309 3573 ft 240 kts 70°
2026-04-22 20:38 59.72518 18.00694 4312 ft 252 kts 78°
2026-04-22 20:39 59.72638 18.04184 5138 ft 255 kts 80°
2026-04-22 20:39 59.72742 18.07756 5838 ft 264 kts 81°
2026-04-22 20:39 59.72852 18.11432 6569 ft 270 kts 80°
2026-04-22 20:39 59.72964 18.15163 7343 ft 272 kts 79°
2026-04-22 20:40 59.73080 18.18872 8105 ft 274 kts 79°
2026-04-22 20:40 59.73204 18.22669 8852 ft 278 kts 78°
2026-04-22 20:40 59.73334 18.26539 9612 ft 282 kts 78°
2026-04-22 20:40 59.73468 18.30445 10317 ft 287 kts 77°
2026-04-22 20:41 59.73615 18.34534 10540 ft 309 kts 78°
2026-04-22 20:41 59.73773 18.38938 10718 ft 331 kts 78°
2026-04-22 20:41 59.73937 18.43642 10878 ft 352 kts 79°
2026-04-22 20:41 59.74100 18.48534 11240 ft 365 kts 79°
2026-04-22 20:42 59.74260 18.53571 11914 ft 367 kts 79°
2026-04-22 20:42 59.74421 18.58625 12598 ft 369 kts 78°
2026-04-22 20:42 59.74587 18.63751 13271 ft 373 kts 78°
2026-04-22 20:42 59.74755 18.68909 13989 ft 376 kts 78°
2026-04-22 20:43 59.75122 18.74004 14614 ft 370 kts 68°
2026-04-22 20:43 59.75965 18.78811 15202 ft 367 kts 58°
2026-04-22 20:43 59.77186 18.83232 15820 ft 363 kts 49°
2026-04-22 20:43 59.78610 18.87314 16418 ft 366 kts 48°
2026-04-22 20:44 59.80082 18.91466 17008 ft 370 kts 48°
2026-04-22 20:44 59.81574 18.95683 17586 ft 375 kts 48°
2026-04-22 20:44 59.83074 18.99957 18183 ft 379 kts 48°
2026-04-22 20:44 59.84583 19.04287 18696 ft 382 kts 48°
2026-04-22 20:45 59.86098 19.08667 19272 ft 384 kts 48°
2026-04-22 20:45 59.87614 19.13065 19857 ft 385 kts 48°
2026-04-22 20:45 59.89130 19.17475 20386 ft 387 kts 48°
2026-04-22 20:45 59.90633 19.21855 20916 ft 389 kts 47°
2026-04-22 20:46 59.93708 19.30837 21964 ft 394 kts 47°
2026-04-22 20:46 59.95259 19.35381 22436 ft 396 kts 47°
2026-04-22 20:46 59.96817 19.39951 22903 ft 399 kts 47°
2026-04-22 20:47 59.98360 19.44491 23363 ft 401 kts 47°
2026-04-22 20:47 59.99928 19.49119 23776 ft 403 kts 47°
2026-04-22 20:47 60.01504 19.53783 24153 ft 405 kts 47°
2026-04-22 20:47 60.03083 19.58465 24532 ft 407 kts 47°
2026-04-22 20:48 60.04667 19.63170 24905 ft 409 kts 47°
2026-04-22 20:48 60.06255 19.67899 25270 ft 410 kts 47°
2026-04-22 20:48 60.07850 19.72656 25609 ft 412 kts 47°
2026-04-22 20:48 60.09446 19.77429 25953 ft 414 kts 47°
2026-04-22 20:49 60.11056 19.82247 26290 ft 416 kts 47°
2026-04-22 20:49 60.12651 19.87031 26618 ft 418 kts 47°
2026-04-22 20:49 60.14272 19.91903 26933 ft 419 kts 47°
2026-04-22 20:49 60.15924 19.96745 27281 ft 419 kts 46°
2026-04-22 20:50 60.17594 20.01523 27750 ft 416 kts 46°
2026-04-22 20:50 60.19257 20.06248 28276 ft 413 kts 46°
2026-04-22 20:50 60.20896 20.10904 28709 ft 412 kts 46°
2026-04-22 20:50 60.22552 20.15622 29008 ft 414 kts 46°
2026-04-22 20:51 60.25892 20.25184 28988 ft 417 kts 46°
2026-04-22 20:51 60.29180 20.34702 28998 ft 411 kts 46°
2026-04-22 20:52 60.32456 20.44213 29001 ft 412 kts 46°
2026-04-22 20:52 60.35711 20.53702 29012 ft 414 kts 46°
2026-04-22 20:53 60.38986 20.63288 28997 ft 414 kts 46°
2026-04-22 20:53 60.42250 20.72887 28998 ft 413 kts 46°
2026-04-22 20:54 60.45496 20.82476 28984 ft 412 kts 46°
2026-04-22 20:54 60.48734 20.92076 28982 ft 411 kts 46°
2026-04-22 20:55 60.51932 21.01596 28982 ft 410 kts 46°
2026-04-22 20:55 60.55141 21.11186 28983 ft 410 kts 46°
2026-04-22 20:56 60.58336 21.20763 28376 ft 416 kts 46°
2026-04-22 20:56 60.59953 21.25627 27635 ft 413 kts 46°
2026-04-22 20:56 60.61549 21.30455 27042 ft 407 kts 47°
2026-04-22 20:57 60.63119 21.35219 26411 ft 402 kts 47°
2026-04-22 20:57 60.64669 21.39928 25819 ft 397 kts 47°
2026-04-22 20:57 60.66200 21.44579 25232 ft 393 kts 47°
2026-04-22 20:57 60.67701 21.49147 24662 ft 389 kts 47°
2026-04-22 20:58 60.69203 21.53722 24097 ft 386 kts 47°
2026-04-22 20:58 60.70695 21.58273 23498 ft 384 kts 48°
2026-04-22 20:58 60.72174 21.62796 22837 ft 381 kts 48°
2026-04-22 20:58 60.73636 21.67280 22274 ft 377 kts 48°
2026-04-22 20:59 60.75081 21.71720 21681 ft 373 kts 48°
2026-04-22 20:59 60.76513 21.76128 21137 ft 370 kts 48°
2026-04-22 20:59 60.77930 21.80497 20566 ft 366 kts 48°
2026-04-22 20:59 60.79261 21.84606 20030 ft 363 kts 48°
2026-04-22 21:00 60.80646 21.88895 19487 ft 359 kts 48°
2026-04-22 21:00 60.82017 21.93146 18958 ft 356 kts 47°
2026-04-22 21:00 60.83373 21.97357 18425 ft 353 kts 47°
2026-04-22 21:00 60.84663 22.01368 17879 ft 350 kts 47°
2026-04-22 21:01 60.85996 22.05519 17311 ft 347 kts 47°
2026-04-22 21:01 60.87316 22.09641 16791 ft 343 kts 48°
2026-04-22 21:01 60.88618 22.13714 16274 ft 339 kts 48°
2026-04-22 21:01 60.89904 22.17742 15754 ft 336 kts 48°
2026-04-22 21:02 60.91180 22.21745 15242 ft 333 kts 48°
2026-04-22 21:02 60.92444 22.25717 14739 ft 330 kts 48°
2026-04-22 21:02 60.93698 22.29666 14233 ft 328 kts 48°
2026-04-22 21:02 60.94940 22.33581 13740 ft 326 kts 48°
2026-04-22 21:03 60.96158 22.37428 13194 ft 324 kts 48°
2026-04-22 21:03 60.97380 22.41295 12706 ft 321 kts 48°
2026-04-22 21:03 60.98591 22.45137 12234 ft 318 kts 48°
2026-04-22 21:03 60.99797 22.48963 11730 ft 319 kts 49°
2026-04-22 21:04 61.01007 22.52804 11234 ft 320 kts 49°
2026-04-22 21:04 61.02229 22.56691 10961 ft 324 kts 49°
2026-04-22 21:04 61.03439 22.60560 10801 ft 316 kts 49°
2026-04-22 21:04 61.04600 22.64291 10642 ft 303 kts 49°
2026-04-22 21:05 61.05712 22.67871 10377 ft 286 kts 49°
2026-04-22 21:05 61.06764 22.71251 10267 ft 274 kts 48°
2026-04-22 21:05 61.07780 22.74504 10112 ft 265 kts 47°
2026-04-22 21:05 61.08749 22.77617 9989 ft 256 kts 47°
2026-04-22 21:06 61.09691 22.80655 9933 ft 245 kts 47°
2026-04-22 21:06 61.10614 22.83624 9526 ft 246 kts 47°
2026-04-22 21:06 61.11594 22.86487 9191 ft 242 kts 42°
2026-04-22 21:06 61.12661 22.89132 8901 ft 238 kts 40°
2026-04-22 21:07 61.13729 22.91735 8622 ft 236 kts 40°
2026-04-22 21:07 61.14784 22.94320 8349 ft 234 kts 41°
2026-04-22 21:07 61.15822 22.96887 8087 ft 231 kts 41°
2026-04-22 21:07 61.16848 22.99442 7816 ft 229 kts 41°
2026-04-22 21:08 61.17860 23.01977 7556 ft 226 kts 41°
2026-04-22 21:08 61.18855 23.04476 7070 ft 226 kts 42°
2026-04-22 21:08 61.19877 23.07033 6416 ft 233 kts 42°
2026-04-22 21:08 61.20998 23.09416 5860 ft 227 kts 28°
2026-04-22 21:09 61.22392 23.10746 5428 ft 217 kts 15°
2026-04-22 21:09 61.23733 23.12188 4935 ft 220 kts 31°
2026-04-22 21:09 61.24959 23.14059 4468 ft 217 kts 31°
2026-04-22 21:09 61.26167 23.15834 4329 ft 210 kts 30°
2026-04-22 21:10 61.27332 23.17539 4229 ft 200 kts 30°
2026-04-22 21:10 61.28447 23.19172 4149 ft 192 kts 30°
2026-04-22 21:10 61.29519 23.20741 4052 ft 184 kts 30°
2026-04-22 21:10 61.30517 23.22204 3986 ft 176 kts 30°
2026-04-22 21:11 61.31456 23.23740 3923 ft 170 kts 42°
2026-04-22 21:11 61.32095 23.25757 3788 ft 163 kts 47°
2026-04-22 21:11 61.32711 23.27694 3598 ft 157 kts 47°
2026-04-22 21:11 61.33294 23.29533 3388 ft 150 kts 47°
2026-04-22 21:12 61.33666 23.30758 3253 ft 147 kts 49°
2026-04-22 21:12 61.34342 23.33099 3010 ft 140 kts 50°
2026-04-22 21:12 61.34838 23.34851 2838 ft 141 kts 50°
2026-04-22 21:12 61.35336 23.36642 2666 ft 145 kts 51°
2026-04-22 21:13 61.35837 23.38468 2468 ft 144 kts 51°
2026-04-22 21:13 61.36330 23.40287 2266 ft 144 kts 52°
2026-04-22 21:13 61.36820 23.42100 2079 ft 143 kts 52°
2026-04-22 21:13 61.37308 23.43911 1839 ft 145 kts 52°
2026-04-22 21:14 61.37809 23.45780 1658 ft 148 kts 53°
2026-04-22 21:14 61.38300 23.47630 1468 ft 142 kts 53°
2026-04-22 21:14 61.38764 23.49370 1306 ft 135 kts 53°
2026-04-22 21:14 61.39226 23.51079 1118 ft 136 kts 55°
2026-04-22 21:15 61.39660 23.52869 944 ft 140 kts 60°
2026-04-22 21:15 61.40107 23.54727 787 ft 145 kts 59°
2026-04-22 21:15 61.40531 23.56601 611 ft 143 kts 58°
2026-04-22 21:15 61.40957 23.58448 407 ft 138 kts 58°
2026-04-22 21:16 61.41320 23.60023 389 ft 94 kts 64°
2026-04-22 21:16 61.41529 23.60928 385 ft 58 kts 64°
2026-04-22 21:16 61.41660 23.61421 385 ft 23 kts 22°
2026-04-22 21:16 61.41809 23.61337 384 ft 21 kts 339°
2026-04-22 21:17 61.41868 23.61288 384 ft 2 kts 22°
2026-04-22 21:17 61.41877 23.61305 384 ft 2 kts 47°
2026-04-22 21:17 61.41886 23.61334 384 ft 2 kts 58°
2026-04-22 21:17 61.41893 23.61365 384 ft 2 kts 65°
2026-04-22 21:18 61.41900 23.61395 384 ft 2 kts 64°
2026-04-22 21:18 61.41903 23.61407 384 ft 0 kts 63°
2026-04-22 21:18 61.41905 23.61417 384 ft 1 kts 63°
2026-04-22 21:18 61.41908 23.61426 384 ft 0 kts 62°